Content
SEND FEEDBACK

Daily
Averages
Monthly
Summary
United States of America

STATEN ISLAND, NEW YORK


Home > North America > United States > New York
Elevation: 152 feet     Latitude: 40 35N     Longitude: 074 09W

WEATHER
 
SELECT A DAY
Number of Records: 189,888;   Date Range: 1/1/95 - 9/18/14
 
SHARE

PRINT THIS DATA

[ ← Previous Day ]
WEATHER ALMANAC - DECEMBER 7, 2013
[ Next Day → ]
[ °C ]   °F
Weather ElementAverageHighLow
Temperature37 °F42.1 °F (10:51 am)32 °F (11:51 pm)
Dewpoint26.8 °F35.6 °F (3:03 am)15.1 °F (10:51 pm)
Humidity68.7 %100 % (3:03 am)45 % (2:51 pm)
Barometer30.32 in30.52 in (10:51 pm)30.11 in (1:51 am)
Wind Speed10.5 mph17.3 mph (11:51 am)
Wind Gust24.2 mph (9:51 am)
Weather ElementAverage
Visibility9 mi
Wind DirectionWNW (288.1 °)

Weather ElementTotal
Precipitation0.06 in
Heating Degree Days28 (Base 65)
Averaged from 27 records on December 7, 2013
WEATHER CONDITIONS BREAKOUT
WIND DIRECTION BREAKOUT
WEATHER BY HOUR - DECEMBER 7, 2013
[ °C ]   °F
Local TimeTemperatureDewpointHumidityBarometerVisibilityWind DirectionWind SpeedGust SpeedPrecipitationEventsConditions
1:51 AM36.0 °F33.1 °F89 %30.11 in10.0 miNNE (20°)12.7 mph0.01 inOvercast
2:48 AM35.6 °F33.8 °F93 %30.21 in3.0 miNorth (350°)6.9 mph0.01 inRainLight Rain
2:51 AM36.0 °F34.0 °F93 %30.20 in3.0 miNorth (360°)5.8 mph0.01 inRainLight Rain
3:03 AM35.6 °F35.6 °F100 %30.19 in3.0 miNorth (10°)8.1 mph0.01 inRainLight Rain
3:51 AM36.0 °F35.1 °F97 %30.18 in8.0 miNorth (10°)6.9 mph0.02 inOvercast
4:51 AM37.0 °F34.0 °F89 %30.20 in6.0 miNorth (360°)8.1 mph0.00 inLight Drizzle
5:24 AM37.4 °F33.8 °F87 %30.21 in9.0 miNorth (350°)9.2 mph0.00 inOvercast
5:51 AM37.0 °F33.1 °F86 %30.22 in10.0 miNNW (340°)10.4 mph0.00 inOvercast
6:15 AM37.4 °F32.0 °F81 %30.23 in10.0 miNorth (350°)9.2 mph17.3 mphOvercast
6:51 AM37.0 °F32.0 °F82 %30.25 in10.0 miNNW (340°)6.9 mphOvercast
7:51 AM37.0 °F30.9 °F79 %30.27 in10.0 miNW (310°)6.9 mphMostly Cloudy
8:51 AM37.9 °F30.9 °F76 %30.30 in10.0 miNW (310°)9.2 mphMostly Cloudy
9:51 AM39.0 °F28.9 °F67 %30.32 in10.0 miNNW (340°)15.0 mph24.2 mphMostly Cloudy
10:51 AM42.1 °F30.0 °F62 %30.32 in10.0 miNW (320°)13.8 mphMostly Cloudy
11:51 AM39.9 °F26.1 °F58 %30.32 in10.0 miWNW (300°)17.3 mph23.0 mphMostly Cloudy
12:51 PM41.0 °F24.1 °F51 %30.32 in10.0 miNNW (330°)17.3 mphScattered Clouds
1:51 PM41.0 °F24.1 °F51 %30.32 in10.0 miNNW (330°)15.0 mphScattered Clouds
2:51 PM41.0 °F21.0 °F45 %30.33 in10.0 miNNW (330°)16.1 mphScattered Clouds
3:51 PM39.0 °F21.0 °F49 %30.35 in10.0 miWNW (300°)11.5 mph18.4 mphScattered Clouds
4:51 PM37.0 °F21.0 °F52 %30.38 in10.0 miWNW (300°)9.2 mph20.7 mphScattered Clouds
5:51 PM36.0 °F21.0 °F55 %30.41 in10.0 miWNW (290°)10.4 mphScattered Clouds
6:51 PM36.0 °F21.0 °F55 %30.43 in10.0 miWNW (290°)8.1 mph18.4 mphScattered Clouds
7:51 PM35.1 °F21.9 °F59 %30.47 in10.0 miWest (270°)8.1 mphMostly Cloudy
8:51 PM34.0 °F18.0 °F52 %30.49 in10.0 miWNW (300°)9.2 mphMostly Cloudy
9:51 PM34.0 °F16.0 °F48 %30.50 in10.0 miNW (320°)11.5 mph19.6 mphMostly Cloudy
10:51 PM33.1 °F15.1 °F48 %30.52 in10.0 miNW (320°)11.5 mphMostly Cloudy
11:51 PM32.0 °F15.1 °F50 %30.52 in10.0 miNNW (330°)10.4 mphScattered Clouds
Hourly data recorded from KEWR, located miles away from Staten Island, New York







STORIES FROM OUR PARTNERS